COSMOS 1275 DEB, 42182

Orbit data source: Space-Track

COSMOS 1275 DEB, 42182 is space debris in LEO originally from a launch on Thu, 04 Jun 1981 UTC launched from the Plesetsk Missile And Space Complex (PKMTR). Debris objects in space refer to the collection of defunct objects orbiting the Earth. Examples of debris include non-operational satellites, rocket bodies, and fragments generated from explosions, collisions, or faulty payload assembly.

Loading next visibility...
Identifier
42182, 1981-053SW
Orbit
LEO
Country
Flag of CISCIS
Related business
Manufacturer
Unknown
Mission
Spacecraft
Bus & Motor
Unknown
Mass
Unknown
Launch date (UTC)
1981-06-04 (45 years ago)
Launch vehicle
Unknown
Launch site
Plesetsk Missile And Space Complex (PKMTR)
Object type
Payload
Rocket body
Debris
Shape & HBR
Unknown shape, 0.1 m
Radar Cross Section
Small (<0.1 m²)

Expand to show TLE details & history
Last TLE update: 2 weeks ago

TLE from 2 weeks ago
0 COSMOS 1275 DEB
1 42182U 81053SW  26224.88095219  .00000277  00000-0  31311-3 0  9990
2 42182  82.9513 276.7653 0131112  89.5053  84.8556 13.63191758618962
Epoch: 2026-08-12T21:08Z
TLE epoch observation values (Epoch: 2026-08-12T21:08:34.269Z)
Latitude
4.01936°
Longitude
177.79875°
Altitude
1,019.128 km
Speed
7.346 km/s
True Right ascension
06h 25m 04s
True Declination
3° 59' 46"
Sunlit
Object was in daylight at epoch
Visualization orbit readout
Latitude
Unknown
Longitude
Unknown
Altitude
Unknown
Speed
Unknown
Apparent Right ascension
Unknown
Apparent Declination
Unknown
Sunlit
N/A
Visualization observer readout
Local Sidereal Time
09:04:39
Azimuth
Unknown
Elevation
Unknown
Doppler factor
Unknown
Orbital elements
Apogee altitude
1,118.294 km
Perigee altitude
924.264 km
Semi-major axis
7,399.416 km
Eccentricity
0.01311
Inclination
82.9513°
RAAN
276.7653°
Arg. of periapsis
89.5053°
True anomaly
86.35401°
Mean anomaly
84.8556°
Eccentric anomaly
85.60461°
Mean motion
3.40994 °/min
Orbital period
105.57 mins
BSTAR
0.00031311
Loading maneuver chart data...
Computing Atmospheric mass density...

Documentation

Showing up to 5 results
|